Language: 


Des rapports , des résumés tant et plus, au choix de chacun....


Données statistiques de la station
Quotidien Rapport Juillet 16, 2017 Unités:  Anglais    Métrique   les deux
« Précédent Jour
Suivant Jour »
Quotidien Hebdomadaire Mensuel Annuel Actuel
  Haut: Bas: Moyen:
Température: 79.2 °F 61 °F 67.6 °F
Pt de rosée: 68 °F 57.2 °F 62.6 °F
Humidité: 95 % 64 % 84 %
Vitesse du vent: 11 mph 0 mph 4 mph
Rafales: 12.1 mph - -
Vent:- - WSW
Pression: 30.2 in 30.2 in -
Précipitation: 0 in    
Historical Graphs
 
 
Données statistiques pour Juillet 16, 2017
Heure Température Point de rosée Pression Vent Vitesse du vent Refales Humidité Pluie (taux horaire)
00:00 62.8 °F 57.2 °F 30.2 in West 6.3 mph 7.2 mph 83 % 0 in
00:05 62.8 °F 57.2 °F 30.2 in WSW 2.5 mph 6.3 mph 83 % 0 in
00:10 62.8 °F 57.2 °F 30.2 in WSW 6 mph 6.3 mph 83 % 0 in
00:15 62.8 °F 57.2 °F 30.2 in WSW 4.9 mph 6 mph 83 % 0 in
00:20 62.8 °F 57.2 °F 30.2 in SSW 4.9 mph 6 mph 83 % 0 in
00:25 62.8 °F 57.2 °F 30.2 in WSW 5.4 mph 7.8 mph 84 % 0 in
00:30 62.8 °F 57.2 °F 30.2 in SW 5.4 mph 7.8 mph 84 % 0 in
00:35 62.8 °F 57.2 °F 30.2 in WSW 3.8 mph 7.8 mph 84 % 0 in
00:40 62.8 °F 59 °F 30.2 in WSW 5.4 mph 6.5 mph 85 % 0 in
00:45 62.8 °F 57.2 °F 30.2 in WSW 5.4 mph 6 mph 84 % 0 in
00:50 62.8 °F 59 °F 30.2 in WSW 3.1 mph 6.3 mph 85 % 0 in
00:55 62.8 °F 59 °F 30.2 in SW 5.4 mph 7.4 mph 85 % 0 in
01:00 62.8 °F 59 °F 30.2 in WSW 5.6 mph 7.6 mph 86 % 0 in
01:05 62.8 °F 59 °F 30.2 in SW 3.1 mph 7.6 mph 86 % 0 in
01:10 62.8 °F 59 °F 30.2 in Calm   6.5 mph 86 % 0 in
01:15 62.8 °F 59 °F 30.2 in WSW 6 mph 6.5 mph 86 % 0 in
01:20 62.6 °F 59 °F 30.2 in WSW 5.6 mph 6 mph 87 % 0 in
01:25 62.8 °F 59 °F 30.2 in WSW 4.9 mph 6 mph 87 % 0 in
01:30 62.8 °F 59 °F 30.2 in SW 3.4 mph 5.8 mph 88 % 0 in
01:35 62.8 °F 59 °F 30.2 in SSW 3.1 mph 6.3 mph 88 % 0 in
01:36 62.8 °F 59 °F 30.2 in WSW 3.8 mph 6.3 mph 88 % 0 in
01:42 62.8 °F 59 °F 30.2 in Calm   6.3 mph 88 % 0 in
01:47 62.8 °F 59 °F 30.2 in WSW 2.9 mph 4.9 mph 89 % 0 in
01:52 62.8 °F 59 °F 30.2 in SW 3.6 mph 4.9 mph 89 % 0 in
01:57 62.8 °F 59 °F 30.2 in WSW 3.6 mph 4.9 mph 89 % 0 in
02:02 62.6 °F 59 °F 30.2 in SW 4.3 mph 4.9 mph 89 % 0 in
02:07 62.6 °F 59 °F 30.2 in West 2.7 mph 4.7 mph 89 % 0 in
02:12 62.6 °F 59 °F 30.2 in SW 3.4 mph 4.7 mph 89 % 0 in
02:17 62.6 °F 59 °F 30.2 in WSW 3.4 mph 5.8 mph 90 % 0 in
02:22 62.6 °F 59 °F 30.2 in WSW 2 mph 5.8 mph 90 % 0 in
02:27 62.6 °F 59 °F 30.2 in SSW 3.8 mph 4.9 mph 90 % 0 in
02:32 62.6 °F 59 °F 30.2 in WSW 6.5 mph 6.5 mph 90 % 0 in
02:37 62.6 °F 59 °F 30.2 in Calm   6.5 mph 90 % 0 in
02:42 62.6 °F 59 °F 30.2 in SW 3.6 mph 4 mph 90 % 0 in
02:47 62.6 °F 60.8 °F 30.2 in Calm   4 mph 91 % 0 in
02:52 62.6 °F 59 °F 30.2 in WSW 5.4 mph 5.4 mph 90 % 0 in
02:57 62.6 °F 60.8 °F 30.2 in Calm   5.4 mph 91 % 0 in
03:03 62.6 °F 60.8 °F 30.2 in WSW 2.5 mph 5.4 mph 91 % 0 in
03:08 62.6 °F 60.8 °F 30.2 in WSW 3.1 mph 4 mph 91 % 0 in
03:13 62.8 °F 60.8 °F 30.2 in SW 3.6 mph 5.8 mph 91 % 0 in
03:18 62.8 °F 60.8 °F 30.2 in WSW 3.1 mph 5.8 mph 91 % 0 in
03:23 62.8 °F 60.8 °F 30.2 in SSW 3.4 mph 3.8 mph 91 % 0 in
03:28 62.8 °F 60.8 °F 30.2 in SW 4 mph 4 mph 91 % 0 in
03:33 62.8 °F 60.8 °F 30.2 in SSW 3.8 mph 4.3 mph 91 % 0 in
03:38 62.8 °F 60.8 °F 30.2 in SW 5.8 mph 5.8 mph 91 % 0 in
03:43 62.8 °F 60.8 °F 30.2 in SW 2.9 mph 5.8 mph 92 % 0 in
03:48 62.8 °F 60.8 °F 30.2 in Calm   5.8 mph 91 % 0 in
03:53 62.8 °F 60.8 °F 30.2 in WSW 3.1 mph 3.1 mph 92 % 0 in
03:58 62.8 °F 60.8 °F 30.2 in WSW 6 mph 6 mph 92 % 0 in
04:03 62.8 °F 60.8 °F 30.2 in SW 2.7 mph 6 mph 92 % 0 in
04:08 62.8 °F 60.8 °F 30.2 in SW 3.8 mph 6 mph 92 % 0 in
04:13 62.8 °F 60.8 °F 30.2 in SSW 5.4 mph 5.4 mph 92 % 0 in
04:18 62.8 °F 60.8 °F 30.2 in SW 2.9 mph 5.4 mph 92 % 0 in
04:23 62.8 °F 60.8 °F 30.2 in SW 3.1 mph 5.4 mph 92 % 0 in
04:28 62.8 °F 60.8 °F 30.2 in SW 3.1 mph 3.6 mph 92 % 0 in
04:34 62.8 °F 60.8 °F 30.2 in Calm   4.3 mph 92 % 0 in
04:39 62.6 °F 60.8 °F 30.2 in Calm   4.3 mph 92 % 0 in
04:44 62.6 °F 60.8 °F 30.2 in WSW 2.9 mph 3.8 mph 92 % 0 in
04:49 62.4 °F 60.8 °F 30.2 in Calm   3.8 mph 93 % 0 in
04:54 62.2 °F 60.8 °F 30.2 in Calm   2.9 mph 93 % 0 in
04:59 61.9 °F 60.8 °F 30.2 in SW 2.7 mph 2.7 mph 93 % 0 in
05:04 61.7 °F 60.8 °F 30.2 in WSW 2.5 mph 2.7 mph 93 % 0 in
05:09 61.5 °F 59 °F 30.2 in Calm   3.4 mph 93 % 0 in
05:14 61.3 °F 59 °F 30.2 in Calm   3.4 mph 93 % 0 in
05:19 61.2 °F 59 °F 30.2 in SW 2.9 mph 2.9 mph 93 % 0 in
05:24 61 °F 59 °F 30.2 in SSW 1.6 mph 3.4 mph 93 % 0 in
05:29 61.2 °F 59 °F 30.2 in Calm   3.4 mph 94 % 0 in
05:34 61.2 °F 59 °F 30.2 in SW 0.9 mph 4 mph 94 % 0 in
05:39 61.2 °F 59 °F 30.2 in Calm   4 mph 94 % 0 in
05:44 61.3 °F 59 °F 30.2 in Calm   0.9 mph 94 % 0 in
05:49 61.5 °F 60.8 °F 30.2 in SSW 3.1 mph 3.1 mph 95 % 0 in
05:54 61.7 °F 60.8 °F 30.2 in Calm   3.1 mph 95 % 0 in
05:59 61.9 °F 60.8 °F 30.2 in Calm     95 % 0 in
06:04 62.1 °F 60.8 °F 30.2 in Calm   3.6 mph 95 % 0 in
06:09 62.2 °F 60.8 °F 30.2 in WSW 4 mph 4 mph 95 % 0 in
06:14 62.2 °F 60.8 °F 30.2 in WSW 2.5 mph 4 mph 95 % 0 in
06:19 62.4 °F 60.8 °F 30.2 in SW 0.9 mph 3.4 mph 95 % 0 in
06:24 62.4 °F 60.8 °F 30.2 in WSW 3.1 mph 3.4 mph 95 % 0 in
06:29 62.6 °F 60.8 °F 30.2 in SSW 2.7 mph 3.1 mph 95 % 0 in
06:34 62.8 °F 60.8 °F 30.2 in SW 3.6 mph 3.6 mph 95 % 0 in
06:40 63 °F 62.6 °F 30.2 in West 5.4 mph 5.4 mph 95 % 0 in
06:45 63 °F 62.6 °F 30.2 in WSW 4.9 mph 5.4 mph 95 % 0 in
06:50 63 °F 62.6 °F 30.2 in WSW 4.9 mph 5.4 mph 95 % 0 in
06:55 63.3 °F 62.6 °F 30.2 in WSW 4.9 mph 4.9 mph 95 % 0 in
07:00 63.3 °F 62.6 °F 30.2 in West 4.3 mph 5.8 mph 95 % 0 in
07:05 63.5 °F 62.6 °F 30.2 in West 4 mph 5.8 mph 95 % 0 in
07:10 63.5 °F 62.6 °F 30.2 in WSW 2.7 mph 4.3 mph 95 % 0 in
07:15 63.5 °F 62.6 °F 30.2 in West 4 mph 5.6 mph 95 % 0 in
07:20 63.5 °F 62.6 °F 30.2 in West 6.3 mph 8.5 mph 95 % 0 in
07:24 63.5 °F 62.6 °F 30.2 in WSW 4.3 mph 8.5 mph 95 % 0 in
07:29 63.7 °F 62.6 °F 30.2 in West 2.9 mph 7.6 mph 95 % 0 in
07:34 63.7 °F 62.6 °F 30.2 in West 7.8 mph 7.8 mph 95 % 0 in
07:39 63.7 °F 62.6 °F 30.2 in WSW 5.8 mph 7.8 mph 95 % 0 in
07:40 63.7 °F 62.6 °F 30.2 in West 8.5 mph 8.5 mph 95 % 0 in
07:45 63.9 °F 62.6 °F 30.2 in West 7.2 mph 8.5 mph 95 % 0 in
07:50 63.9 °F 62.6 °F 30.2 in SSW 4.7 mph 8.5 mph 95 % 0 in
07:55 63.9 °F 62.6 °F 30.2 in North 5.6 mph 7.2 mph 95 % 0 in
08:00 64 °F 62.6 °F 30.2 in WSW 4.7 mph 6.7 mph 95 % 0 in
08:05 64 °F 62.6 °F 30.2 in WSW 2.5 mph 5.8 mph 95 % 0 in
08:10 64.2 °F 62.6 °F 30.2 in West 3.8 mph 6.3 mph 95 % 0 in
08:15 64.2 °F 62.6 °F 30.2 in WSW 4.9 mph 6.3 mph 95 % 0 in
08:20 64.4 °F 62.6 °F 30.2 in West 8.7 mph 8.7 mph 94 % 0 in
08:25 64.4 °F 62.6 °F 30.2 in NW 3.8 mph 8.7 mph 94 % 0 in
08:30 64.4 °F 62.6 °F 30.2 in WSW 3.8 mph 8.7 mph 94 % 0 in
08:36 64.6 °F 62.6 °F 30.2 in West 2.7 mph 5.8 mph 94 % 0 in
08:41 64.6 °F 62.6 °F 30.2 in West 5.6 mph 6.3 mph 94 % 0 in
08:46 64.6 °F 62.6 °F 30.2 in West 5.8 mph 6.5 mph 94 % 0 in
08:51 64.6 °F 62.6 °F 30.2 in West 5.6 mph 6.5 mph 94 % 0 in
08:56 64.8 °F 62.6 °F 30.2 in West 4.3 mph 5.8 mph 94 % 0 in
09:01 64.8 °F 62.6 °F 30.2 in WNW 2.5 mph 7.2 mph 94 % 0 in
09:06 64.8 °F 62.6 °F 30.2 in WNW 2.7 mph 7.2 mph 94 % 0 in
09:11 64.8 °F 62.6 °F 30.2 in West 4 mph 7.8 mph 94 % 0 in
09:16 64.8 °F 62.6 °F 30.2 in WSW 2.5 mph 7.8 mph 94 % 0 in
09:21 64.8 °F 62.6 °F 30.2 in WNW 3.1 mph 7.4 mph 94 % 0 in
09:26 64.8 °F 62.6 °F 30.2 in SW 2.9 mph 5.4 mph 94 % 0 in
09:31 64.8 °F 64.4 °F 30.2 in SW 7.6 mph 7.6 mph 95 % 0 in
09:36 65.1 °F 64.4 °F 30.2 in West 3.1 mph 10.1 mph 95 % 0 in
09:38 65.3 °F 64.4 °F 30.2 in West 2.9 mph 10.1 mph 95 % 0 in
09:43 65.7 °F 64.4 °F 30.2 in WSW 4.9 mph 4.9 mph 95 % 0 in
09:48 65.8 °F 64.4 °F 30.2 in West 1.6 mph 5.6 mph 94 % 0 in
09:53 66 °F 64.4 °F 30.2 in SW 5.6 mph 8.1 mph 94 % 0 in
09:58 66 °F 64.4 °F 30.2 in WSW 6.3 mph 8.1 mph 94 % 0 in
10:03 66 °F 64.4 °F 30.2 in West 6.3 mph 7.2 mph 94 % 0 in
10:08 66.2 °F 64.4 °F 30.2 in West 5.4 mph 7.2 mph 94 % 0 in
10:13 66.4 °F 64.4 °F 30.2 in WNW 5.4 mph 6.5 mph 94 % 0 in
10:19 66.6 °F 64.4 °F 30.2 in WSW 6.5 mph 6.7 mph 93 % 0 in
10:24 66.6 °F 64.4 °F 30.2 in WSW 5.6 mph 6.7 mph 93 % 0 in
10:29 66.6 °F 64.4 °F 30.2 in WSW 4 mph 8.5 mph 93 % 0 in
10:34 66.6 °F 64.4 °F 30.2 in West 4.9 mph 8.5 mph 93 % 0 in
10:39 66.6 °F 64.4 °F 30.2 in West 4.3 mph 7.4 mph 93 % 0 in
10:44 66.6 °F 64.4 °F 30.2 in WSW 5.4 mph 7.4 mph 93 % 0 in
10:49 66.7 °F 64.4 °F 30.2 in SSW 2.7 mph 6 mph 93 % 0 in
10:54 67.1 °F 66.2 °F 30.2 in WSW 4.9 mph 5.6 mph 94 % 0 in
10:59 67.1 °F 66.2 °F 30.2 in West 7.4 mph 7.4 mph 93 % 0 in
11:04 67.1 °F 66.2 °F 30.2 in WSW 6 mph 8.5 mph 93 % 0 in
11:09 66.9 °F 64.4 °F 30.2 in WSW 5.8 mph 8.5 mph 92 % 0 in
11:14 67.1 °F 64.4 °F 30.2 in WSW 5.6 mph 7.6 mph 92 % 0 in
11:19 67.1 °F 64.4 °F 30.2 in SW 4.9 mph 7.6 mph 92 % 0 in
11:24 67.1 °F 64.4 °F 30.2 in WSW 5.6 mph 6.5 mph 92 % 0 in
11:29 67.1 °F 64.4 °F 30.2 in WSW 4.9 mph 6.5 mph 92 % 0 in
11:34 67.1 °F 64.4 °F 30.2 in West 7.8 mph 8.5 mph 92 % 0 in
11:39 66.9 °F 64.4 °F 30.2 in West 6.3 mph 8.5 mph 92 % 0 in
11:44 67.3 °F 64.4 °F 30.2 in West 6.5 mph 7.6 mph 92 % 0 in
11:49 67.3 °F 64.4 °F 30.2 in West 6 mph 8.5 mph 92 % 0 in
11:55 67.5 °F 64.4 °F 30.2 in WSW 6 mph 8.5 mph 92 % 0 in
12:00 67.5 °F 64.4 °F 30.2 in WSW 3.8 mph 7.4 mph 92 % 0 in
12:05 68 °F 66.2 °F 30.2 in WSW 3.4 mph 7.2 mph 92 % 0 in
12:10 68.4 °F 66.2 °F 30.2 in WSW 4.7 mph 7.2 mph 92 % 0 in
12:15 68.9 °F 66.2 °F 30.2 in West 5.4 mph 8.5 mph 92 % 0 in
12:20 69.1 °F 66.2 °F 30.2 in WSW 7.6 mph 8.5 mph 91 % 0 in
12:25 68.9 °F 66.2 °F 30.2 in West 3.1 mph 7.6 mph 90 % 0 in
12:30 68.7 °F 66.2 °F 30.2 in Calm   8.5 mph 90 % 0 in
12:35 69.3 °F 66.2 °F 30.2 in WSW 6.7 mph 8.5 mph 90 % 0 in
12:40 70.3 °F 66.2 °F 30.2 in SW 5.6 mph 8.7 mph 88 % 0 in
12:45 70.5 °F 66.2 °F 30.2 in West 4 mph 8.7 mph 86 % 0 in
12:50 70.3 °F 66.2 °F 30.2 in West 11 mph 11 mph 84 % 0 in
12:55 70.2 °F 64.4 °F 30.2 in West 5.6 mph 11 mph 83 % 0 in
13:00 70.2 °F 64.4 °F 30.2 in SW 7.4 mph 10.3 mph 83 % 0 in
13:05 70.7 °F 66.2 °F 30.2 in SW 5.8 mph 9.2 mph 84 % 0 in
13:10 71.2 °F 66.2 °F 30.2 in SW 3.6 mph 7.4 mph 83 % 0 in
13:15 72 °F 66.2 °F 30.2 in West 7.4 mph 9.8 mph 81 % 0 in
13:20 71.8 °F 66.2 °F 30.2 in WSW 6 mph 9.8 mph 81 % 0 in
13:25 71.6 °F 66.2 °F 30.2 in WSW 4 mph 7.6 mph 80 % 0 in
13:30 71.2 °F 64.4 °F 30.2 in West 6.5 mph 8.7 mph 80 % 0 in
13:35 71.1 °F 64.4 °F 30.2 in WSW 4.7 mph 8.7 mph 80 % 0 in
13:40 71.2 °F 64.4 °F 30.2 in WSW 7.8 mph 8.9 mph 80 % 0 in
13:45 71.4 °F 66.2 °F 30.2 in West 5.6 mph 8.9 mph 80 % 0 in
13:50 71.6 °F 66.2 °F 30.2 in West 8.5 mph 10.1 mph 80 % 0 in
13:55 72 °F 66.2 °F 30.2 in West 5.4 mph 10.1 mph 80 % 0 in
14:00 72.7 °F 66.2 °F 30.2 in West 6.5 mph 8.7 mph 79 % 0 in
14:05 72.9 °F 66.2 °F 30.2 in WSW 8.5 mph 8.5 mph 79 % 0 in
14:11 72.3 °F 64.4 °F 30.2 in WSW 6.5 mph 8.5 mph 78 % 0 in
14:16 72.5 °F 66.2 °F 30.2 in WSW 5.8 mph 8.5 mph 78 % 0 in
14:21 72.5 °F 66.2 °F 30.2 in West 7.4 mph 7.8 mph 78 % 0 in
14:26 72.3 °F 64.4 °F 30.2 in West 3.4 mph 7.6 mph 78 % 0 in
14:31 72.1 °F 64.4 °F 30.2 in SW 4.7 mph 7.4 mph 78 % 0 in
14:36 72.1 °F 64.4 °F 30.2 in WSW 6.5 mph 6.5 mph 78 % 0 in
14:41 72.3 °F 64.4 °F 30.2 in WSW 6.3 mph 6.9 mph 78 % 0 in
14:46 72.3 °F 64.4 °F 30.2 in West 6.5 mph 8.1 mph 77 % 0 in
14:51 72.7 °F 66.2 °F 30.2 in West 3.4 mph 8.1 mph 78 % 0 in
14:56 73 °F 66.2 °F 30.2 in West 6.9 mph 8.7 mph 77 % 0 in
15:01 74.7 °F 68 °F 30.2 in WSW 4.3 mph 9.8 mph 77 % 0 in
15:06 75.7 °F 68 °F 30.2 in West 1.3 mph 9.8 mph 76 % 0 in
15:11 75 °F 66.2 °F 30.2 in WSW 7.2 mph 10.5 mph 74 % 0 in
15:16 74.7 °F 66.2 °F 30.2 in WSW 4 mph 10.5 mph 73 % 0 in
15:21 75.6 °F 66.2 °F 30.2 in WSW 6.9 mph 9.6 mph 73 % 0 in
15:26 75.9 °F 66.2 °F 30.2 in SSW 1.3 mph 9.6 mph 72 % 0 in
15:31 76.1 °F 66.2 °F 30.2 in West 7.2 mph 8.9 mph 69 % 0 in
15:32 76.1 °F 66.2 °F 30.2 in WSW 5.4 mph 8.9 mph 69 % 0 in
15:36 76.1 °F 66.2 °F 30.2 in West 5.6 mph 8.9 mph 69 % 0 in
15:41 76.1 °F 66.2 °F 30.2 in West 7.8 mph 8.5 mph 70 % 0 in
15:46 75.6 °F 64.4 °F 30.2 in WNW 3.4 mph 9.8 mph 69 % 0 in
15:51 75 °F 64.4 °F 30.2 in West 5.6 mph 9.8 mph 70 % 0 in
15:56 75 °F 64.4 °F 30.2 in WNW 4.3 mph 8.5 mph 70 % 0 in
16:00 74.8 °F 64.4 °F 30.2 in West 7.4 mph 8.5 mph 71 % 0 in
16:05 75 °F 66.2 °F 30.2 in West 5.8 mph 7.6 mph 71 % 0 in
16:10 75.2 °F 66.2 °F 30.2 in WSW 7.4 mph 7.8 mph 71 % 0 in
16:15 75 °F 66.2 °F 30.2 in WSW 7.2 mph 9.2 mph 71 % 0 in
16:20 74.7 °F 64.4 °F 30.2 in WSW 6 mph 9.2 mph 71 % 0 in
16:25 75.2 °F 66.2 °F 30.2 in WNW 2.5 mph 8.5 mph 71 % 0 in
16:30 75.2 °F 66.2 °F 30.2 in West 5.4 mph 9.4 mph 71 % 0 in
16:36 74.7 °F 66.2 °F 30.2 in WSW 7.8 mph 10.3 mph 72 % 0 in
16:41 74.1 °F 64.4 °F 30.2 in WSW 3.1 mph 10.3 mph 72 % 0 in
16:46 73.8 °F 64.4 °F 30.2 in West 8.7 mph 10.5 mph 72 % 0 in
16:51 73.8 °F 66.2 °F 30.2 in West 6.5 mph 11 mph 74 % 0 in
16:56 74.1 °F 64.4 °F 30.2 in WNW 5.6 mph 11 mph 73 % 0 in
17:01 73.8 °F 64.4 °F 30.2 in WSW 7.4 mph 11 mph 72 % 0 in
17:06 73.8 °F 64.4 °F 30.2 in West 6.3 mph 11 mph 73 % 0 in
17:11 73.9 °F 64.4 °F 30.2 in West 10.1 mph 11 mph 73 % 0 in
17:16 74.3 °F 66.2 °F 30.2 in West 5.6 mph 10.1 mph 73 % 0 in
17:21 74.5 °F 66.2 °F 30.2 in West 9.6 mph 9.8 mph 73 % 0 in
17:23 74.5 °F 66.2 °F 30.2 in West 10.1 mph 10.1 mph 73 % 0 in
17:28 75.6 °F 66.2 °F 30.2 in WSW 2.9 mph 11 mph 72 % 0 in
17:33 76.8 °F 66.2 °F 30.2 in West 7.6 mph 11 mph 70 % 0 in
17:38 77.7 °F 66.2 °F 30.2 in West 9.4 mph 10.5 mph 68 % 0 in
17:43 77.7 °F 66.2 °F 30.2 in NNW 4.9 mph 12.1 mph 67 % 0 in
17:48 77.9 °F 66.2 °F 30.2 in West 7.8 mph 12.1 mph 66 % 0 in
17:53 78.6 °F 66.2 °F 30.2 in WSW 3.6 mph 10.5 mph 66 % 0 in
17:58 79.2 °F 68 °F 30.2 in WSW 5.4 mph 8.1 mph 65 % 0 in
18:03 78.8 °F 66.2 °F 30.2 in NW 5.8 mph 7.4 mph 64 % 0 in
18:08 78.6 °F 66.2 °F 30.2 in West 8.5 mph 8.5 mph 64 % 0 in
18:13 78.8 °F 66.2 °F 30.2 in West 8.1 mph 8.7 mph 64 % 0 in
18:18 78.8 °F 66.2 °F 30.2 in West 10.1 mph 11 mph 64 % 0 in
18:23 77.2 °F 64.4 °F 30.2 in WNW 2.9 mph 11 mph 64 % 0 in
18:28 77 °F 64.4 °F 30.2 in West 7.6 mph 10.1 mph 66 % 0 in
18:33 77 °F 64.4 °F 30.2 in WSW 5.8 mph 8.9 mph 66 % 0 in
18:38 76.6 °F 64.4 °F 30.2 in West 8.7 mph 8.9 mph 67 % 0 in
18:43 77 °F 64.4 °F 30.2 in WNW 6.5 mph 9.6 mph 66 % 0 in
18:48 76.3 °F 64.4 °F 30.2 in WSW 3.8 mph 9.6 mph 67 % 0 in
18:53 76.6 °F 64.4 °F 30.2 in West 8.5 mph 9.6 mph 67 % 0 in
18:58 75.9 °F 64.4 °F 30.2 in WSW 7.6 mph 10.1 mph 67 % 0 in
19:03 75.6 °F 64.4 °F 30.2 in West 5.6 mph 10.1 mph 67 % 0 in
19:08 75.9 °F 64.4 °F 30.2 in West 4.3 mph 7.6 mph 67 % 0 in
19:13 76.1 °F 64.4 °F 30.2 in WSW 6.5 mph 7.6 mph 67 % 0 in
19:18 75.9 °F 64.4 °F 30.2 in WSW 3.4 mph 7.6 mph 68 % 0 in
19:23 75 °F 64.4 °F 30.2 in West 3.6 mph 7.6 mph 68 % 0 in
19:29 74.5 °F 64.4 °F 30.2 in WSW 4.9 mph 7.6 mph 69 % 0 in
19:34 74.1 °F 62.6 °F 30.2 in West 3.4 mph 7.6 mph 69 % 0 in
19:39 73.9 °F 62.6 °F 30.2 in WSW 4.3 mph 5.8 mph 69 % 0 in
19:44 74.1 °F 64.4 °F 30.2 in West 4 mph 7.6 mph 70 % 0 in
19:49 74.1 °F 62.6 °F 30.2 in West 4 mph 7.6 mph 69 % 0 in
19:53 74.1 °F 64.4 °F 30.2 in WSW 5.8 mph 6.5 mph 70 % 0 in
19:59 74.3 °F 64.4 °F 30.2 in WSW 6.5 mph 6.5 mph 70 % 0 in
20:04 74.7 °F 64.4 °F 30.2 in WSW 3.1 mph 7.2 mph 70 % 0 in
20:09 74.5 °F 64.4 °F 30.2 in West 6.3 mph 7.2 mph 69 % 0 in
20:14 74.1 °F 62.6 °F 30.2 in SW 4.3 mph 6.3 mph 69 % 0 in
20:19 73.6 °F 62.6 °F 30.2 in West 4 mph 6 mph 70 % 0 in
20:24 73.2 °F 62.6 °F 30.2 in Calm   6 mph 70 % 0 in
20:29 72.9 °F 62.6 °F 30.2 in WSW 6 mph 6.3 mph 71 % 0 in
20:34 72.5 °F 62.6 °F 30.2 in West 2 mph 6.3 mph 71 % 0 in
20:39 72.1 °F 62.6 °F 30.2 in Calm   6 mph 71 % 0 in
20:44 71.8 °F 62.6 °F 30.2 in West 3.8 mph 6 mph 72 % 0 in
20:49 71.4 °F 62.6 °F 30.2 in WSW 1.1 mph 4.3 mph 74 % 0 in
20:54 71.1 °F 62.6 °F 30.2 in Calm   4.7 mph 74 % 0 in
20:59 70.9 °F 62.6 °F 30.2 in WSW 1.3 mph 4.7 mph 75 % 0 in
21:04 70.7 °F 62.6 °F 30.2 in Calm   4 mph 75 % 0 in
21:09 70.2 °F 62.6 °F 30.2 in Calm     76 % 0 in
21:14 69.8 °F 62.6 °F 30.2 in Calm     76 % 0 in
21:19 69.4 °F 62.6 °F 30.2 in Calm     77 % 0 in
21:24 69.3 °F 62.6 °F 30.2 in Calm     78 % 0 in
21:29 68.7 °F 60.8 °F 30.2 in Calm     78 % 0 in
21:35 68.4 °F 62.6 °F 30.2 in Calm     79 % 0 in
21:40 67.8 °F 62.6 °F 30.2 in Calm     80 % 0 in
21:45 67.5 °F 60.8 °F 30.2 in Calm     80 % 0 in
21:50 66.9 °F 60.8 °F 30.2 in Calm   1.1 mph 81 % 0 in
21:55 66.7 °F 60.8 °F 30.2 in Calm   1.1 mph 82 % 0 in
22:00 66.2 °F 60.8 °F 30.2 in Calm     82 % 0 in
22:05 66 °F 60.8 °F 30.2 in Calm     83 % 0 in
22:10 65.5 °F 60.8 °F 30.2 in Calm     84 % 0 in
22:15 65.1 °F 60.8 °F 30.2 in Calm     84 % 0 in
22:20 64.8 °F 60.8 °F 30.2 in Calm     85 % 0 in
22:25 64.4 °F 60.8 °F 30.2 in Calm     86 % 0 in
22:30 64 °F 60.8 °F 30.2 in Calm     87 % 0 in
22:35 63.9 °F 60.8 °F 30.2 in Calm     87 % 0 in
22:40 63.5 °F 60.8 °F 30.2 in Calm     88 % 0 in
22:45 63.3 °F 59 °F 30.2 in Calm     88 % 0 in
22:50 63.1 °F 59 °F 30.2 in Calm     88 % 0 in
22:55 63 °F 60.8 °F 30.2 in Calm     89 % 0 in
23:00 62.8 °F 59 °F 30.2 in Calm   2.7 mph 89 % 0 in
23:01 62.8 °F 59 °F 30.2 in Calm   2.7 mph 89 % 0 in
23:06 62.6 °F 59 °F 30.2 in Calm   2.9 mph 90 % 0 in
23:11 62.6 °F 59 °F 30.2 in Calm   2.9 mph 90 % 0 in
23:17 62.2 °F 59 °F 30.2 in Calm     91 % 0 in
23:22 62.1 °F 59 °F 30.2 in Calm   2.7 mph 91 % 0 in
23:27 61.9 °F 59 °F 30.2 in Calm   3.1 mph 91 % 0 in
23:32 61.9 °F 59 °F 30.2 in Calm   3.1 mph 92 % 0 in
23:37 61.9 °F 59 °F 30.2 in Calm   1.6 mph 92 % 0 in
23:42 61.9 °F 59 °F 30.2 in Calm     92 % 0 in
23:47 61.7 °F 59 °F 30.2 in Calm     92 % 0 in
23:52 61.5 °F 59 °F 30.2 in Calm     92 % 0 in
23:57 61.3 °F 59 °F 30.2 in Calm     92 % 0 in
Le Gheer Warneton
Courtoisie de Weather Underground - 2.25 mb

Mise a jour : 16-12-17 12:12:11
Généré par Cumulus 1.9.4 (1099)